#timestamp,LO_Frequency,Hit,StdDev 
1601121615.5,286047004.0,N
1601121635.4,286047006.6,Y
1601121655.2,286047001.3,P
1601121675.0,286047005.7,N
1601121675.9,286047005.7,N
1601121695.8,286047005.7,Y
1601121715.6,286046998.7,P
1601121735.5,286047004.3,N
1601121755.3,286047000.7,N
1601121775.1,286046999.9,N
1601121795.9,286047002.4,N
1601121815.7,286047001.2,N
1601121835.6,286047001.2,N
1601121855.4,286046998.6,N
1601121875.2,286046999.5,N
1601121895.1,286046996.5,N
1601121896.0,286046996.5,N
1601121915.8,286046994.4,N
1601121935.6,286046992.8,N
1601121955.5,286046993.1,N
1601121975.3,286046994.0,N
1601121995.2,286046996.4,N
1601122015.9,286046996.3,N
1601122035.7,286046996.2,N
1601122055.6,286046992.1,N
1601122075.4,286046992.9,N
1601122095.2,286046992.3,N
1601122115.1,286046991.8,N
1601122116.0,286046991.8,N
1601122135.8,286046992.9,N
1601122155.7,286046990.8,N
1601122175.5,286046992.6,N
1601122195.3,286046993.0,N
1601122215.2,286046992.3,N
1601122235.9,286046993.0,N
1601122255.7,286046992.9,N
1601122275.6,286046990.3,N
1601122295.4,286046989.0,N
1601122315.3,286046992.0,N
1601122335.1,286046991.8,N
1601122336.0,286046991.8,N
1601122355.8,286046991.6,N
1601122375.7,286046988.8,Y
1601122395.5,286046995.8,P
1601122415.3,286046997.4,N
1601122435.2,286047001.1,N
1601122455.0,286046998.2,N
1601122455.9,286046998.2,N
1601122475.8,286046998.8,N
1601122495.6,286046998.8,N
1601122515.4,286047000.3,N
1601122535.3,286046998.9,N
1601122555.1,286046998.4,N
1601122575.8,286046997.3,N
1601122595.7,286046993.9,Y
1601122615.5,286046993.9,P
1601122635.4,286046992.2,P
1601122655.2,286046992.8,N
1601122675.0,286046992.3,Y
1601122675.9,286046992.3,P
1601122695.8,286046999.9,N
1601122715.6,286047002.7,N
1601122735.4,286047000.8,N
1601122755.3,286047001.0,N
1601122775.1,286047000.9,N
1601122795.9,286046998.3,N
1601122815.7,286046999.7,N
1601122835.5,286046997.1,N
1601122855.4,286046996.9,N
1601122875.2,286046998.8,N
1601122895.0,286046996.5,N
1601122896.0,286046996.5,N
1601122915.8,286047001.1,N
1601122935.6,286047000.8,N
1601122955.5,286047002.3,N
1601122975.3,286046999.4,N
1601122995.1,286046996.5,N
1601123015.9,286046999.0,N
1601123035.7,286046998.6,N
1601123055.6,286046998.7,N
1601123075.4,286046997.1,N
1601123095.2,286046997.6,N
1601123115.1,286046993.7,N
1601123116.0,286046993.7,N
1601123135.8,286046995.4,N
1601123155.6,286046997.1,N
1601123175.5,286047000.1,N
1601123195.3,286047000.8,N
1601123215.2,286046996.5,N
1601123235.9,286046995.7,N
1601123255.7,286046995.9,N
1601123275.6,286046995.7,N
1601123295.4,286046996.0,N
1601123315.3,286046993.7,N
1601123335.1,286046997.8,N
1601123336.0,286046997.8,N
1601123355.8,286046995.5,N
1601123375.7,286046995.6,N
1601123395.5,286046995.1,N
1601123415.3,286046997.5,N
1601123435.2,286046995.1,N
1601123455.0,286046994.9,N
1601123455.9,286046994.9,N
1601123475.8,286046996.7,N
1601123495.6,286046995.3,N
1601123515.4,286046995.2,N
1601123535.3,286046994.0,Y
1601123555.1,286046998.5,P
1601123575.9,286046998.7,N
1601123595.7,286047002.6,N
1601123615.5,286047001.7,N
1601123635.4,286047003.2,N
1601123655.2,286047002.1,N
1601123675.0,286047002.1,N
1601123675.9,286047002.1,N
1601123695.8,286047002.4,N
1601123715.6,286047002.0,N
1601123735.5,286047001.8,N
1601123755.3,286047001.7,N
1601123775.1,286047001.9,N
1601123795.9,286047001.5,N
1601123815.7,286047003.9,N
1601123835.5,286047003.7,N
1601123855.4,286047005.3,N
1601123875.2,286047007.1,Y
1601123895.1,286047003.7,P
1601123896.0,286047003.7,P
1601123915.8,286047003.6,P
1601123935.6,286047006.0,Y
1601123955.5,286047000.6,P
1601123975.3,286047002.7,N
1601123995.2,286047002.5,N
1601124015.9,286047002.6,N
1601124035.7,286047002.7,N
1601124055.6,286047004.2,Y
1601124075.4,286046998.8,P
1601124095.2,286046997.1,N
1601124115.1,286046998.6,N
1601124116.0,286046998.6,N
1601124135.8,286046995.4,N
1601124155.7,286046996.4,N
1601124175.5,286046994.5,N
1601124195.3,286046996.1,N
1601124215.2,286046997.2,N
1601124235.0,286046995.4,N
1601124235.9,286046995.4,N
1601124255.8,286046994.5,N
1601124275.6,286046996.3,N
1601124295.4,286046994.0,N
1601124315.3,286046993.6,Y
1601124335.1,286046997.8,P
1601124355.9,286046997.3,P
1601124375.7,286046996.5,P
1601124395.5,286046996.8,Y
1601124415.4,286047000.2,P
1601124435.2,286047002.7,N
1601124455.0,286047001.4,N
1601124455.9,286047001.4,N
1601124475.8,286047004.0,N
1601124495.6,286047004.1,N
1601124515.5,286047003.5,N
1601124535.3,286047003.7,N
1601124555.1,286047004.2,N
1601124575.9,286047002.9,N
1601124595.7,286047010.0,Y
1601124615.6,286047011.9,P
1601124635.4,286047012.3,N
1601124655.2,286047010.7,N
1601124675.1,286047010.3,N
1601124676.0,286047010.3,N
1601124695.8,286047008.8,N
1601124715.6,286047008.7,N
1601124735.5,286047006.3,N
1601124755.3,286047004.5,N
1601124775.2,286047006.4,N
1601124795.9,286047008.9,N
1601124815.7,286047010.7,Y
1601124835.6,286046999.8,P
1601124855.4,286047001.9,N
1601124875.2,286047001.4,N
1601124895.1,286047002.7,N
1601124896.0,286047002.7,N
1601124915.8,286047004.4,N
1601124935.7,286047001.9,N
1601124955.5,286047000.3,N
1601124975.3,286047000.5,N
1601124995.2,286047000.0,N
1601125015.0,286046996.6,N
1601125015.9,286046996.6,N
1601125035.8,286046999.6,N
1601125055.6,286046995.6,N
1601125075.4,286046997.7,N
1601125095.3,286046996.0,N
1601125115.1,286046995.3,N
1601125135.8,286046996.9,N
1601125155.7,286046997.6,N
1601125175.5,286046996.1,N
1601125195.4,286046994.6,N
